Regional Weather Roundup
Issued by NWS Charleston, SC

Current Version | Previous Version | Graphics & Text | Print | Product List | Glossary On
Versions: 1 2 3 4 5 6 7 8 9 10 11 12 13 14 15 16 17 18 19 20 21 22 23 24 25 26 27 28 29 30 31 32 33 34 35 36 37 38 39 40 41 42 43 44 45 46 47 48 49 50
000
ASUS42 KCHS 220827
RWRCHS

Regional Weather Roundup
National Weather Service Charleston SC
400 AM EDT TUE MAY 22 2018

NOTE: "fair" indicates few or no clouds below 12,000 feet with no
significant weather and/or obstructions to visibility.

Not all stations are quality controlled. Use data with caution,
especially dewpoint observations.

SCZ027-030-031-034>040-042>050-220900-
...Southeast South Carolina...

CITY           SKY/WX    TMP DP  RH WIND       PRES   REMARKS
N Charleston   MOCLDY    73  71  93 CALM      30.10F
Waterfront Prk   N/A     76  73  90 S7        29.95F
Mount Pleasant FAIR      70  70 100 CALM      30.11S
Johns Island   CLOUDY    75  72  88 CALM      30.11S
Pinopolis        N/A     72  72 100 CALM      30.03F
Moncks Corner  FAIR      66  66 100 CALM      30.11F FOG
Summerville    FAIR      68  66  94 CALM      30.12F
Beaufort MCAS  FAIR      76  74  93 CALM      30.10S
Beaufort Arpt  FAIR      73  72  94 CALM      30.10S
Hilton Head Is FAIR      75  72  88 VRB6      30.10F
Walterboro     FAIR      64  64 100 CALM      30.12S FOG
Allendale      CLOUDY    70  70 100 CALM      30.10S FOG

...Southern Midlands and Pee Dee...

CITY           SKY/WX    TMP DP  RH WIND       PRES   REMARKS
Georgetown       N/A     64  64 100 CALM      30.13F FOG
Kingstree      FAIR      68  68 100 CALM      30.12S
Orangeburg     FAIR      70  68  93 CALM      30.12S
Barnwell       CLOUDY    68  68 100 CALM      30.11S
Aiken          CLOUDY    68  68 100 CALM      30.15S
Manning        FAIR      66  66 100 CALM      30.12S
Columbia       MOCLDY    73  71  93 S3        30.11R
Sumter         MOCLDY    70  68  94 S3        30.10R
Florence       FAIR      71  69  93 S5        30.12S
Myrtle Beach   NOT AVBL
N Myrtle Beach FAIR      72  71  97 SW5       30.12S

$$

GAZ063-065-086>088-099>101-113>116-118-119-134>141-150-220900-
...Southeast Georgia...

CITY           SKY/WX    TMP DP  RH WIND       PRES   REMARKS
Savannah Arpt  FAIR      74  71  91 E6        30.09S
Hunter AAF     FAIR      74  71  88 SE3       30.06F
Fort Stewart   CLOUDY    72  71  96 CALM      30.07R
Statesboro     MOCLDY    68  68  99 CALM      30.10S
Sylvania       FAIR      71  71 100 CALM      30.11S FOG
Claxton        CLOUDY    71  70  98 CALM      30.09S FOG

...CSRA, Central and far Southeast Georgia...

CITY           SKY/WX    TMP DP  RH WIND       PRES   REMARKS
Thomson        CLOUDY    68  67  96 CALM      30.16S
Augusta-Bush   MOCLDY    67  67 100 CALM      30.10S FOG
Augusta-Daniel FAIR      72  70  93 SE5       30.12R
Swainsboro     CLOUDY    72  72 100 SE5       30.11R
Vidalia        CLOUDY    72  68  88 CALM      30.09S
Eastman        CLOUDY    72  65  77 CALM      30.11S
Hazlehurst       N/A     73  69  86 S3        30.08R
Alma           CLOUDY    73  70  90 SE5       30.08R
Waycross       CLOUDY    73  70  91 SE3       30.08R
Jesup          NOT AVBL
Baxley         CLOUDY    70  70 100 CALM      30.08S
Brunswick      MOCLDY    75  68  78 SE5       30.09R
Saint Simons   MOCLDY    76  71  85 SE8       30.07F

$$

SCZ027-028-034-036>038-045-046-048>050-GAZ119-141-220900-
...Lake and Supplemental Coastal Observations...

STATION/POSITION TIME  TEMP    WIND        PRES    WAVE   SWELL
                       AIR SEA DIR/SP/G            HT/PER HT/PER/DIR
                 (UTC) (F)     (DEG/KT/KT) (MB)    (FT/S) (FT/S/D)
Winyah Bay       0745   70     330/  2     1020.0S
Lake Murray      0720   75     170/  7/  9 1019.0R
ACE Basin NERRS  0745   75     140/  2     1019.0F
Fort Pulaski     0748   75 78  140/  5/  6 1019.3S
Sapelo Island    0800   75     150/  6     1018.0

$$

ANZ835-935-AMZ111-154-330-350-352-354-370-450-454-472-220900-
...C-MAN and Buoy Observations...

STATION/POSITION TIME  TEMP    WIND        PRES    WAVE   SWELL
                       AIR SEA DIR/SP/G            HT/PER HT/PER/DIR
                 (UTC) (F)     (DEG/KT/KT) (MB)    (FT/S) (FT/S/D)
Buoy 41004       0800      75  170/  6/ 10 1019.5
Buoy 41008       0750   76 75  140/ 10/ 12 1018.3S   3/10   3/110/10
Folly Beach CMAN 0800   76     160/  9/ 10 1020.0F
Capers Nearshore 0808   76 77  170/  6/  8 1020.2F
Fripp Nearshore  0808   76 77  160/  8/ 10 1018.8S


STATION/POSITION TIME  TEMP    WIND        PRES    WAVE   SWELL
                       AIR SEA DIR/SP/G            HT/PER HT/PER/DIR
                 (UTC) (F)     (DEG/KT/KT) (MB)    (FT/S) (FT/S/D)
5E St. Marys GA  0800      75                N/A     4/10   2/110/11
Frying Pan Buoy  0800   76     220/  6/  8 1020.2
Buoy 41025       0810   74 74  240/ 12/ 16 1020.2
Cape Lookout NC  0800          230/  5/  7 1020.3F
Buoy 41002       0800      77  180/ 10/ 12 1021.0
Buoy 41010       0800   77 79  130/ 14/ 17 1019.2
St Augustine FL  0800   76 76  140/ 10/ 12 1018.2F


$$



USA.gov is the U.S. government's official web portal to all federal, state and local government web resources and services.